sat.trackr.live / text

‹ back to catalog

ONEWEB-0148

NORAD 48059 · 2021-025T

PAYLOAD ACTIVE UNKNOWN

§ Identity

Operator
Country
UK
Launch date
2021-03-25
Launch site
VOSTO
Launch vehicle
Mass (kg)
RCS (m²)

Purposes: comms

External: N2YO · Heavens-Above · Gunter

§ Orbital elements

Epoch: 2026-05-25T04:36:35.794080Z

Period
109.63 min
Inclination
87.8942°
Eccentricity
0.0002198
Mean motion
13.13468229 rev/d
Perigee alt
1,208.1 km
Apogee alt
1,211.4 km
Semi-major
7,587.9 km
B*
6.9525e-4
RAAN
324.8117°
Arg perigee
103.5893°
Mean anomaly
256.5481°
Rev number
25,059

§ Raw data

ONEWEB-01481 48059U 21025T   26145.19208095  .00000267  00000+0  69525-3 0  99922 48059  87.8942 324.8117 0002198 103.5893 256.5481 13.13468229250592

JSON: /api/v1/satellites/48059 · /tle

For live sub-satellite position, see the globe view (requires WebGL).

§ Visibility from observer

Set your observer location to see the next 7 days of passes ≥ 10°. The values pass through the URL so the page stays shareable.

No JS? Fill the form by hand. The geolocation button needs JavaScript.